This is the latest recevied weather packets stored in our database for station/object W8LMG. If no packets are shown the sender has not sent any weather packets the latest 10 day(s).
| Time | Temp. | Humidity | Pressure | Rain* | Wind** | Luminosity | Snow |
|---|---|---|---|---|---|---|---|
| 1777134905 | 20.56° C | 62% | 1010.6 hPa | 0 mm | - | 94 W/m² | - |
| 1777134602 | 20.56° C | 61% | 1010.5 hPa | 0 mm | - | 103 W/m² | - |
| 1777134298 | 20.56° C | 61% | 1010.6 hPa | 0 mm | - | 86 W/m² | - |
| 1777133995 | 21.11° C | 60% | 1010.6 hPa | 0 mm | - | 100 W/m² | - |
| 1777133691 | 21.67° C | 59% | 1010.6 hPa | 0 mm | - | 133 W/m² | - |
| 1777133390 | 21.67° C | 58% | 1010.6 hPa | 0 mm | - | 82 W/m² | - |
| 1777133085 | 22.22° C | 59% | 1010.5 hPa | 0 mm | - | 126 W/m² | - |
| 1777132781 | 21.67° C | 59% | 1010.6 hPa | 0 mm | - | 202 W/m² | - |
| 1777132478 | 21.67° C | 58% | 1010.6 hPa | 0 mm | - | 260 W/m² | - |
| 1777132174 | 21.67° C | 60% | 1010.6 hPa | 0 mm | - | 247 W/m² | - |
| 1777131870 | 21.67° C | 59% | 1010.8 hPa | 0 mm | - | 261 W/m² | - |
| 1777131569 | 21.67° C | 61% | 1010.6 hPa | 0 mm | - | 319 W/m² | - |
| 1777131268 | 21.67° C | 58% | 1010.5 hPa | 0 mm | - | 457 W/m² | - |
| 1777130968 | 21.67° C | 57% | 1010.6 hPa | 0 mm | - | 495 W/m² | - |
| 1777130665 | 21.67° C | 59% | 1010.7 hPa | 0 mm | - | 415 W/m² | - |
| 1777130361 | 21.67° C | 58% | 1010.7 hPa | 0 mm | - | 462 W/m² | - |
| 1777130058 | 21.11° C | 59% | 1010.7 hPa | 0 mm | - | 326 W/m² | - |
| 1777129754 | 21.11° C | 61% | 1010.7 hPa | 0 mm | - | 319 W/m² | - |
| 1777129454 | 20.56° C | 60% | 1010.9 hPa | 0 mm | - | 329 W/m² | - |
| 1777129153 | 20° C | 61% | 1010.6 hPa | 0 mm | - | 369 W/m² | - |
| 1777128849 | 20° C | 61% | 1010.8 hPa | 0 mm | - | 247 W/m² | - |
| 1777128546 | 19.44° C | 64% | 1011 hPa | 0 mm | - | 332 W/m² | - |
| 1777128243 | 18.33° C | 66% | 1010.8 hPa | 0 mm | - | 355 W/m² | - |
| 1777127941 | 18.33° C | 68% | 1010.9 hPa | 0 mm | - | 258 W/m² | - |
| 1777127637 | 17.78° C | 70% | 1010.9 hPa | 0 mm | - | 218 W/m² | - |
* Rain latest hour (hover to see other rain measurements)
** Current wind speed in m/s (hover to see current wind gust speed)